Theta_e
308 302 298 301 303 302 301 298 297 300 303 301 300 301 304 307 307 307 308 308 310 313 315 317 318 320 321 322 323 325 327 327 327 327 331 334 332 334 336 336 336 337 337 337
303 298 303 304 303 301 300 297 297 300 303 302 300 300 304 305 306 308 308 309 310 311 314 315 317 319 320 321 324 325 326 327 328 328 327 329 331 333 334 335 335 336 336 336
298 302 304 302 300 298 298 296 296 296 301 302 300 298 301 306 308 309 310 311 312 312 312 315 316 318 321 322 324 325 327 328 329 328 328 329 330 331 330 330 331 334 334 335
300 304 301 300 298 299 295 300 299 298 297 292 301 291 299 303 304 306 309 310 310 311 312 315 315 318 321 322 326 326 327 328 328 329 326 326 325 324 327 329 331 333 333 332
298 300 300 298 299 302 298 303 300 300 297 296 297 293 298 303 301 303 307 309 310 310 310 312 316 319 322 324 326 327 328 328 329 327 326 325 325 325 327 329 330 331 332 332
301 306 303 302 303 303 303 300 300 300 297 289 295 293 294 299 301 302 307 309 310 310 311 312 318 320 322 326 326 328 327 327 329 328 327 326 325 325 325 326 327 329 328 329
298 300 304 304 299 303 301 297 290 288 289 288 297 293 296 302 303 303 305 307 311 311 311 314 317 319 322 324 325 326 326 326 327 326 326 326 326 326 326 326 325 324 325 326
289 288 297 301 300 297 298 297 291 284 285 290 295 290 296 304 304 305 307 308 311 312 313 316 318 320 321 323 322 322 322 323 325 324 324 325 325 324 325 325 325 324 326 327
286 287 297 297 300 301 298 293 300 292 293 290 293 297 302 304 303 304 305 307 309 312 314 316 318 320 321 320 319 320 323 322 323 323 324 322 322 323 324 326 326 326 327 325
289 284 292 294 297 299 297 301 291 293 284 283 289 291 293 298 300 304 303 305 309 312 311 316 318 319 321 321 319 320 322 322 323 323 324 323 323 324 325 325 323 323 322 322
288 286 286 292 290 290 292 293 295 295 293 286 285 289 301 301 303 304 304 307 309 308 311 315 317 319 319 319 319 319 319 320 322 323 322 320 320 321 322 321 321 321 322 320
288 284 280 284 292 294 293 291 291 285 289 292 291 291 303 304 305 306 305 307 310 311 314 315 317 317 317 317 319 319 320 320 321 321 319 317 318 319 318 317 318 318 317 317
287 282 277 279 285 289 288 289 289 288 288 288 288 290 303 305 303 303 305 307 310 312 313 315 316 316 316 316 316 315 316 317 319 318 317 318 317 317 316 316 316 316 316 315
290 283 280 276 280 285 284 285 288 286 281 281 285 286 297 296 297 299 301 306 309 311 312 314 314 315 316 316 316 315 315 317 317 318 317 315 314 315 315 315 315 312 314 312
286 279 281 282 283 284 283 283 285 284 286 281 284 283 288 295 296 298 301 303 307 310 312 313 313 314 316 316 316 314 314 316 316 316 314 313 313 313 313 312 312 311 312 313
287 280 282 279 282 282 281 283 284 285 286 286 286 286 294 297 298 296 301 302 304 308 311 313 313 313 315 315 315 314 314 315 316 314 311 310 311 311 310 310 309 310 311 312
283 281 279 275 280 280 277 282 283 284 286 286 283 288 293 292 296 298 299 301 301 304 309 312 314 313 314 316 316 313 313 316 314 313 312 309 311 311 310 309 308 308 309 310
282 281 280 276 278 270 281 287 287 285 287 289 289 290 291 295 298 298 300 300 301 302 304 308 313 315 315 317 317 315 314 314 313 312 310 309 311 310 308 307 305 305 306 307
286 282 277 274 274 278 281 284 286 285 284 289 289 292 293 296 298 296 300 301 301 302 304 305 308 314 316 316 316 314 313 313 312 310 309 309 309 308 306 304 303 305 305 306
286 286 280 278 273 271 281 288 291 290 280 290 292 293 293 294 289 293 299 301 302 304 305 306 312 311 316 316 316 313 312 312 310 310 309 308 307 307 305 304 303 303 305 305
281 281 277 278 275 279 285 288 291 279 283 292 294 295 294 292 294 298 299 300 303 304 305 310 313 312 316 316 315 312 312 311 311 310 309 307 307 305 305 305 304 304 306 307
279 278 278 280 276 274 289 289 283 289 295 294 293 293 293 294 295 296 298 299 301 303 305 310 312 313 315 315 314 312 311 313 311 308 307 305 306 306 307 306 305 306 306 307
278 283 281 282 281 289 292 290 293 294 293 294 293 295 293 291 293 296 297 299 300 303 305 310 312 312 313 314 314 311 313 313 308 306 305 304 306 309 309 308 307 307 307 305
286 288 284 284 287 289 291 293 295 295 294 294 294 294 293 292 292 293 296 297 299 302 303 308 310 309 310 313 314 314 314 312 308 305 303 303 306 308 308 308 308 306 305 303
285 286 285 285 288 290 291 292 294 295 295 296 296 296 294 294 293 293 293 295 298 300 303 306 309 309 309 311 313 314 312 311 307 304 302 303 306 307 307 307 306 305 304 303
287 285 282 282 289 288 290 293 295 294 294 295 296 295 295 295 293 294 294 295 297 299 301 302 308 310 310 311 312 313 312 311 307 303 302 304 306 307 306 303 299 300 301 302
Wind_Speed
15 13 17 18 18 19 20 20 20 18 16 14 16 18 18 18 20 20 20 19 19 17 16 17 17 16 15 13 13 14 13 12 8 7 8 7 7 6 7 6 8 7 7 5
16 18 18 19 17 17 18 20 22 19 18 13 16 18 17 20 23 23 24 21 20 21 18 18 19 17 16 16 14 13 12 11 8 6 5 5 5 7 6 5 6 10 10 7
19 12 6 16 19 17 19 20 20 21 18 18 19 23 23 21 18 13 15 16 16 18 19 19 18 16 16 16 15 13 11 10 9 7 4 3 4 3 3 5 7 8 9 8
15 16 22 20 18 15 21 16 19 19 15 15 4 15 15 15 18 12 14 9 11 12 14 14 17 16 15 13 12 11 10 9 7 8 7 8 6 7 6 7 7 6 8 8
8 9 9 17 21 16 21 14 13 15 16 16 16 13 14 17 13 12 4 2 4 4 6 12 16 14 13 11 11 10 9 7 6 7 6 6 7 4 3 1 4 7 5 7
21 20 18 13 15 16 17 9 12 13 12 15 18 17 16 15 13 10 9 7 3 4 6 10 12 13 12 10 11 9 9 8 7 6 6 6 5 5 4 5 4 2 2 1
18 19 20 16 16 16 13 12 9 9 12 15 13 7 15 13 1 6 9 11 3 4 8 10 13 13 13 12 10 9 8 8 7 6 5 5 5 4 5 6 3 5 3 4
14 24 21 19 20 16 17 19 11 15 13 12 4 9 11 8 4 1 6 3 3 6 9 12 13 13 13 12 10 11 10 7 7 6 5 3 5 2 4 3 4 4 5 6
9 18 23 24 21 11 20 19 24 23 23 17 13 15 16 7 7 4 4 4 7 9 11 13 14 12 12 12 10 9 10 10 9 8 6 5 2 4 4 3 3 2 3 3
8 17 14 16 21 19 21 18 15 12 8 17 12 16 13 13 7 4 3 4 8 10 8 11 12 11 10 12 8 8 7 9 8 7 5 6 4 4 4 3 3 3 2 3
18 9 19 18 15 17 17 15 24 11 16 17 17 15 5 12 6 9 7 5 8 9 12 12 11 10 10 11 10 8 7 9 9 8 7 5 3 3 4 4 3 3 2 3
18 18 19 22 24 22 19 9 6 6 17 16 18 12 10 14 14 10 8 5 7 10 11 10 10 10 10 9 9 10 10 8 8 6 7 5 3 3 4 3 4 5 4 1
13 9 15 20 19 23 6 5 8 7 3 10 16 15 14 15 14 9 11 4 7 11 9 10 10 10 11 10 9 8 7 6 8 7 8 6 5 4 4 3 3 4 4 4
13 13 17 16 20 21 12 6 7 5 5 8 6 16 13 16 13 13 12 5 4 10 11 10 9 9 10 11 11 10 9 8 7 7 6 6 5 4 4 4 4 5 4 3
14 18 19 19 22 24 26 24 13 14 8 5 9 21 22 15 11 6 4 10 2 7 11 11 10 9 10 10 11 10 8 9 8 8 8 6 6 5 6 6 5 6 5 5
15 18 18 19 22 23 26 29 23 19 17 10 14 21 20 11 14 8 5 6 6 5 9 13 13 13 12 11 10 10 10 9 8 9 9 8 6 7 7 7 6 6 5 7
19 15 17 21 22 23 21 21 24 23 23 17 15 17 15 17 15 6 8 6 3 6 3 9 12 13 13 12 11 11 11 10 9 9 9 9 7 8 9 8 7 7 7 8
20 20 15 17 19 23 20 22 24 22 15 15 20 12 17 11 12 8 3 5 5 6 4 4 8 12 13 12 12 13 12 11 10 10 10 9 8 9 9 9 8 8 8 8
20 17 10 14 16 21 25 24 19 11 14 18 19 16 15 10 6 9 4 5 6 5 6 7 8 10 13 14 13 13 12 12 11 10 10 10 10 10 10 9 8 7 9 9
9 17 13 11 13 16 19 20 20 7 10 11 13 18 15 8 4 6 8 6 4 5 6 8 10 10 13 14 13 14 13 13 12 12 11 11 11 10 10 10 9 7 8 9
4 7 15 15 11 13 15 10 4 8 1 7 7 5 11 7 3 2 6 7 6 7 8 7 6 6 12 13 12 14 13 14 13 12 12 11 10 10 11 11 9 7 9 10
13 6 6 4 7 14 11 8 9 6 6 7 3 4 3 5 2 2 4 8 8 7 8 7 3 3 9 10 12 13 13 14 14 12 12 11 12 10 10 12 8 8 9 11
4 6 7 6 5 6 13 11 12 7 5 4 3 3 3 3 3 5 6 7 8 7 7 6 2 3 4 9 11 13 13 16 14 13 13 11 10 12 12 11 10 8 10 9
10 13 10 13 12 14 11 15 16 8 7 4 2 2 2 5 7 7 6 7 7 6 6 6 3 4 4 6 9 11 13 16 16 14 13 10 10 12 11 9 8 8 7 7
11 14 14 16 17 17 13 12 15 9 11 12 8 6 6 7 7 8 7 7 7 8 5 5 2 4 5 5 9 10 15 16 15 14 12 9 9 12 11 9 7 7 8 6
12 13 11 11 13 9 12 8 11 10 10 10 12 11 9 8 8 8 9 8 7 8 6 5 3 4 6 6 8 10 15 16 15 13 11 9 9 9 8 8 8 19 12 14
Wind_Direction
197 220 228 241 248 256 277 284 278 275 282 268 262 267 279 286 280 272 268 261 258 242 221 213 204 196 195 192 196 187 186 183 175 197 195 199 221 227 227 201 245 201 250 232
233 230 248 257 256 266 272 265 268 274 273 277 282 275 279 276 270 267 264 258 254 249 229 213 197 188 192 190 189 190 184 183 183 204 222 229 214 220 232 224 217 233 214 192
239 248 234 241 255 256 259 261 274 281 298 285 284 275 264 256 249 263 260 265 260 259 245 215 176 187 194 192 181 184 179 185 185 193 198 211 240 233 219 234 233 220 214 189
263 258 260 256 256 244 260 264 268 272 276 275 287 288 292 300 277 266 262 254 270 239 254 249 171 187 197 190 164 177 174 179 190 177 201 205 212 220 216 204 217 207 213 201
243 226 250 255 243 239 258 283 282 275 271 280 261 263 277 272 264 256 190 34 300 299 257 246 165 180 188 167 163 163 165 173 167 182 205 207 221 226 223 181 202 213 202 205
263 277 277 261 280 253 272 262 262 266 268 255 256 246 268 266 258 257 155 139 134 209 210 226 152 163 167 165 157 155 157 158 166 179 188 209 223 224 217 202 208 160 195 174
284 257 240 243 259 260 249 225 245 239 228 258 286 270 255 275 228 263 290 325 109 171 174 162 164 166 162 167 139 144 141 152 153 167 171 194 210 219 238 223 180 178 177 190
275 279 261 263 228 252 238 223 231 245 258 284 45 242 250 250 34 289 299 302 174 180 162 159 165 168 166 145 162 141 149 143 112 117 136 115 90 165 191 137 200 190 206 196
321 268 306 320 320 300 249 244 242 263 276 284 248 245 252 236 215 191 268 296 199 175 152 166 165 166 161 137 153 144 148 140 137 142 134 104 142 181 165 107 185 209 194 191
322 293 280 299 302 269 271 276 239 240 228 231 239 244 257 181 211 51 360 214 172 124 146 188 159 158 156 133 143 137 141 135 134 129 125 127 184 156 129 118 139 185 210 236
300 257 284 302 273 277 275 252 256 237 252 243 255 255 245 200 93 60 66 139 151 147 190 170 157 153 130 124 147 144 142 147 153 148 102 95 40 96 71 51 11 349 337 256
296 289 278 280 297 298 296 321 307 318 237 226 246 261 121 106 71 54 75 113 147 165 192 169 160 156 151 148 153 165 161 161 138 126 114 115 127 133 95 70 18 2 13 96
325 284 288 276 257 257 336 12 319 301 282 285 257 233 147 111 83 55 62 92 177 172 193 180 171 166 161 167 168 151 155 150 141 141 139 156 143 121 95 79 36 9 8 347
287 266 259 274 293 304 290 318 314 354 308 342 330 333 101 58 46 35 16 34 189 186 185 194 182 181 176 176 163 157 167 146 149 156 130 123 116 122 103 93 64 35 34 358
259 269 278 285 286 277 281 271 248 267 265 254 305 299 314 321 347 35 3 313 291 196 186 211 165 216 189 184 167 152 165 151 157 139 133 127 124 108 107 89 61 58 40 61
265 272 281 289 287 284 281 280 276 253 256 244 268 283 276 355 332 317 269 210 299 206 204 202 173 205 214 187 180 155 171 156 162 142 136 124 131 121 106 95 76 70 60 74
285 279 281 279 286 294 281 273 262 258 254 250 243 259 295 300 296 338 333 304 318 335 244 211 191 201 219 192 182 165 174 155 162 149 141 134 150 126 110 98 86 70 61 75
255 261 276 275 281 271 276 271 272 259 261 267 246 219 245 255 276 324 1 2 61 346 350 292 222 196 200 219 184 166 171 162 154 149 141 133 135 123 110 100 85 76 69 67
233 245 257 257 262 277 280 277 277 237 251 246 253 223 210 228 306 293 47 35 5 332 324 310 287 220 185 214 188 152 170 155 152 151 143 135 129 126 116 101 92 89 92 89
221 223 232 251 262 273 273 320 241 233 260 248 234 221 228 239 204 289 4 338 349 344 349 323 292 236 174 195 187 155 168 158 156 153 145 135 128 127 115 108 100 97 98 102
208 229 230 239 238 261 275 247 282 219 296 136 232 239 208 204 244 295 330 319 349 356 357 343 295 223 165 186 178 161 164 166 151 144 143 132 127 126 119 115 114 115 113 112
287 272 249 247 240 252 304 169 234 60 115 142 154 108 117 133 306 307 359 334 344 4 1 11 310 208 150 190 171 169 166 154 141 141 142 134 134 138 130 123 129 130 124 116
261 251 281 237 277 276 338 330 326 327 233 177 181 104 87 15 3 341 357 336 334 2 5 28 341 85 158 192 170 172 166 142 141 142 140 138 145 148 140 137 139 134 129 125
291 344 296 274 272 257 269 256 281 280 283 169 241 177 222 322 339 333 333 327 322 347 6 24 74 145 196 193 192 164 150 144 147 143 143 149 149 143 147 145 143 143 140 135
291 286 275 283 270 270 260 253 276 253 244 247 261 275 293 305 306 309 308 308 319 324 341 2 49 164 195 193 213 163 145 149 149 144 144 156 138 148 149 143 138 144 135 138
262 265 261 271 296 294 285 265 246 217 240 241 250 269 264 286 296 297 300 302 302 299 323 327 359 156 188 201 215 154 150 156 150 146 150 156 151 147 151 131 94 59 74 79